Hourly Data Report for September 03, 2017

All times are specified in Local Standard Time (LST). Add 1 hour to adjust for Daylight Saving Time where and when it is observed.

KAMLOOPS A
BRITISH COLUMBIA

50°42'09.000" N
120°26'55.000" W
345.30 m
1163781
71887
YKA

Download Data

Hourly Data (September 2017)
Hourly Data Report for September 3, 2017
Temp Definition
°C
Dew Point Temp Definition
°C
Rel Hum Definition
%
Wind Dir Definition
10's deg

Wind Spd Definition
km/h
Visibility Definition
km
Stn Press Definition
kPa
Hmdx Definition


Wind Chill Definition


Weather Definition


TIME
00:00 Legend Double Dagger 20.6 12.9 61 24 10 9.7 97.59     Smoke
01:00 Legend Double Dagger 20.3 12.4 60 25 12 9.7 97.67     Smoke
02:00 Legend Double Dagger 19.7 11.6 59 24 13 9.7 97.72     Smoke
03:00 Legend Double Dagger 18.7 11.9 64 24 14 6.4 97.72     Smoke
04:00 Legend Double Dagger 18.0 10.8 62 24 12 6.4 97.73     Smoke
05:00 Legend Double Dagger 17.1 10.7 66 25 12 6.4 97.76     Smoke
06:00 Legend Double Dagger 16.5 10.8 69 29 5 6.4 97.79     Smoke
07:00 Legend Double Dagger 17.8 11.1 65 25 5 6.4 97.83     Smoke
08:00 Legend Double Dagger 19.1 11.3 60 28 5 6.4 97.83     Smoke
09:00 Legend Double Dagger 19.9 11.7 59 27 8 4.8 97.81     Smoke
10:00 Legend Double Dagger 21.4 11.6 53 26 8 3.6 97.78     Smoke
11:00 Legend Double Dagger 23.6 12.0 48 28 14 4.0 97.73 26   Smoke
12:00 Legend Double Dagger 25.5 11.5 41 27 12 6.4 97.68 28   Smoke
13:00 Legend Double Dagger 27.9 12.3 38 27 8 4.8 97.60 30   Smoke
14:00 Legend Double Dagger 30.9 10.4 28 29 4 9.7 97.52 32   Smoke
15:00 Legend Double Dagger 31.3 10.2 27 17 5 9.7 97.49 33   Smoke
16:00 Legend Double Dagger 32.8 9.9 24 11 8 9.7 97.49 34   Smoke
17:00 Legend Double Dagger 31.5 10.8 27 5 26 11.3 97.51 33   LegendNANA
18:00 Legend Double Dagger 29.9 10.2 29 3 38 11.3 97.57 31   LegendNANA
19:00 Legend Double Dagger 28.4 9.4 30 2 16 12.9 97.69 29   Mostly Cloudy
20:00 Legend Double Dagger 26.9 9.8 34 9 5 16.1 97.82 28   LegendNANA
21:00 Legend Double Dagger 24.1 9.2 38 36 3 16.1 97.88 25   LegendNANA
22:00 Legend Double Dagger 23.1 10.8 45 27 4 16.1 97.98 25   Mainly Clear
23:00 Legend Double Dagger 20.6 10.3 51 36 2 40.2 98.06     LegendNANA

Notes on Data Quality.

Legend

  • E = Estimated
  • M = Missing
  • NA = Not Available
  • ‡ = Partner data that is not subject to review by the National Climate Archives
Date modified: